Location: Shenandoah County Park
(38.9356°N, 78.4524°W)
Time: 12:54:57
(UTC-05:00)

Envisat - Pass Details

Date: 29 November 2021
Orbit: 764 x 766 km, 98.2° (Epoch: 23 January)

Event Time Altitude Azimuth Distance (km) Brightness Sun altitude
Rises 05:19:55 0° 11° (N) 3,240 6.3 -21.3°
Reaches altitude 10° 05:22:14 10° 11° (N) 2,310 5.5 -20.9°
Maximum altitude 05:27:19 82° 285° (WNW) 777 2.9 -19.9°
Drops below altitude 10° 05:32:23 10° 198° (SSW) 2,293 5.4 -18.9°
Sets 05:34:41 0° 197° (SSW) 3,215 6.2 -18.5°
